Home > Weather > Bradford > Past weeks

Flag for United Kingdom Weather for the Past 2 Weeks in Bradford, England, United Kingdom

Now
37 °F

Passing clouds.


Feels Like: 28 °F
Forecast: N/A
Wind: 15 mph from West

Location: Leeds And Bradford

Current Time: Feb 9, 2016 at 9:33:19 PM

Latest Report: Feb 9, 2016 at 8:50 PM


Visibility: N/A

Pressure: 29.00 "Hg

Humidity: 93%

Dew point: 36 °F

Location of BradfordLocation

Historic Weather in Bradford — Graph

°F

Bradford Temperature Yesterday

Maximum temperature yesterday: 43 °F (at 11:50 AM)
Minimum temperature yesterday: 39 °F (at 1:50 AM)
Average temperature yesterday: 41 °F

High & Low Weather Summary for the Past Weeks

 TemperatureHumidityPressure
High54 °F (Jan 27, 9:20 AM)100% (Jan 26, 7:20 PM)30.21 "Hg (Jan 26, 7:20 PM)
Low32 °F (Jan 30, 2:20 PM)62% (Jan 29, 12:20 PM)28.65 "Hg (Feb 8, 6:50 AM)
Average42 °F88%29.56 "Hg
* Reported Jan 25 8:20 PM — Feb 9 8:20 PM, Bradford, Weather by CustomWeather, © 2016

Note: Actual official high and low records may vary slightly from our data, if they occured in-between our weather recording intervals... More about our weather records

Advertising

Bradford Weather History for the Previous 24 Hours

 ConditionsComfort  
Time TempWeatherWind HumidityBarometerVisibility
8:20 PM
Tue, Feb 9
37 °FPassing clouds.16 mph93%29.00 "HgN/A
7:50 PM37 °FPassing clouds.16 mph93%28.97 "HgN/A
7:20 PM37 °FPassing clouds.15 mph87%29.00 "HgN/A
6:50 PM37 °FPassing clouds.12 mph93%28.97 "HgN/A
6:20 PM37 °FSprinkles. Passing clouds.14 mph93%28.97 "HgN/A
5:50 PM37 °FPassing clouds.17 mph93%28.97 "HgN/A
5:20 PM37 °FLight rain. Passing clouds.18 mph93%28.94 "HgN/A
4:50 PM37 °FScattered clouds.18 mph87%28.94 "HgN/A
4:20 PM37 °FScattered clouds.16 mph93%28.94 "HgN/A
3:50 PM37 °FSprinkles. Scattered clouds.16 mph93%28.94 "HgN/A
3:20 PM37 °FSprinkles. Scattered clouds.15 mph93%28.94 "HgN/A
2:20 PM39 °FSprinkles. Scattered clouds.21 mph81%28.94 "HgN/A
1:20 PM39 °FSprinkles. Scattered clouds.16 mph87%28.91 "HgN/A
12:50 PM39 °FSprinkles. Scattered clouds.17 mph87%28.94 "HgN/A
12:20 PM37 °FSprinkles. Scattered clouds.12 mph93%28.94 "HgN/A
11:50 AM36 °FSleet. Scattered clouds.16 mph93%28.94 "HgN/A
11:20 AM36 °FSleet. Scattered clouds.9 mph93%28.94 "HgN/A
10:20 AM37 °FScattered clouds.12 mph93%28.97 "HgN/A
9:50 AM37 °FScattered clouds.14 mph93%28.97 "HgN/A
9:20 AM37 °FScattered clouds.14 mph87%28.97 "HgN/A
8:50 AM36 °FSprinkles. Scattered clouds.10 mph100%28.97 "HgN/A
8:20 AM37 °FScattered showers. Scattered clouds.12 mph87%28.97 "HgN/A
7:50 AM36 °FSprinkles. Scattered clouds.13 mph93%28.97 "HgN/A
7:20 AM37 °FPassing clouds.13 mph87%28.97 "HgN/A
6:50 AM37 °FSprinkles. Passing clouds.14 mph87%28.97 "HgN/A
6:20 AM37 °FSprinkles. Passing clouds.14 mph87%29.00 "HgN/A
5:50 AM37 °FSprinkles. Passing clouds.13 mph93%29.00 "HgN/A
5:20 AM37 °FSprinkles. Passing clouds.16 mph93%29.00 "HgN/A
4:50 AM37 °FPassing clouds.16 mph93%29.00 "HgN/A
4:20 AM37 °FPassing clouds.16 mph93%29.00 "HgN/A
3:50 AM37 °FPassing clouds.16 mph93%29.03 "HgN/A
3:20 AM37 °FSprinkles. Passing clouds.17 mph93%29.03 "HgN/A
2:50 AM37 °FSprinkles. Passing clouds.20 mph93%29.03 "HgN/A
2:20 AM37 °FSprinkles. Passing clouds.21 mph93%29.03 "HgN/A
1:20 AM39 °FSprinkles. Passing clouds.21 mph87%29.06 "HgN/A
12:50 AM39 °FSprinkles. Passing clouds.18 mph93%29.06 "HgN/A
12:20 AM39 °FSprinkles. Passing clouds.18 mph87%29.06 "HgN/A
11:50 PM
Mon, Feb 8
39 °FSprinkles. Passing clouds.20 mph93%29.06 "HgN/A
11:20 PM39 °FSprinkles. Passing clouds.21 mph93%29.06 "HgN/A
10:50 PM39 °FSprinkles. Passing clouds.21 mph93%29.06 "HgN/A
10:20 PM39 °FSprinkles. Passing clouds.24 mph93%29.03 "HgN/A
9:50 PM41 °FSprinkles. Passing clouds.25 mph93%29.03 "HgN/A
9:20 PM41 °FSprinkles. Passing clouds.26 mph93%29.00 "Hg6 mi
Weather by CustomWeather, © 2016

See weather overviewHow to use our weather pages